Home > Weather > Ulm > Past weeks

Flag for Germany Past Weather in Ulm, Baden-Württemberg, Germany — Yesterday and Last 2 Weeks

Now
72 °F

Scattered clouds.


Feels Like: 74 °F
Forecast: 62 / 76 °F
Wind: 6 mph from Northeast

Location: Laupheim Airport

Current Time: Jul 24, 2016 at 8:44:59 PM

Latest Report: Jul 24, 2016 at 7:20 PM


Visibility: N/A

Pressure: 30.09 "Hg

Humidity: 73%

Dew Point: 63 °F

Location of UlmLocation

Past Weather in Ulm — Graph

°F

Ulm Temperature Yesterday

Maximum temperature yesterday: 77 °F (at 4:20 PM)
Minimum temperature yesterday: 61 °F (at 8:20 PM)
Average temperature yesterday: 66 °F

High & Low Weather Summary for the Past Weeks

 TemperatureHumidityPressure
High88 °F (Jul 10, 5:20 PM)100% (Jul 12, 11:20 PM)30.36 "Hg (Jul 12, 11:20 PM)
Low46 °F (Jul 15, 5:20 AM)29% (Jul 20, 7:20 PM)29.92 "Hg (Jul 10, 6:20 PM)
Average66 °F73%30.11 "Hg
* Reported Jul 9 7:20 PM — Jul 24 7:20 PM, Ulm, Weather by CustomWeather, © 2016

Note: Actual official high and low records may vary slightly from our data, if they occured in-between our weather recording intervals... More about our weather records

Advertising

Ulm Weather History for the Previous 24 Hours

Scroll right to see more
 ConditionsComfort  
Time TempWeatherWind HumidityBarometerVisibility
7:20 PM
Sun, Jul 24
72 °FScattered clouds.6 mph73%30.09 "HgN/A
6:20 PM73 °FScattered clouds.5 mph65%30.09 "HgN/A
5:20 PM77 °FScattered clouds.3 mph61%30.09 "HgN/A
4:20 PM77 °FScattered clouds.3 mph54%30.09 "HgN/A
3:20 PM75 °FScattered clouds.6 mph61%30.09 "HgN/A
2:20 PM75 °FScattered clouds.2 mph61%30.12 "HgN/A
1:20 PM77 °FScattered clouds.2 mph61%30.12 "HgN/A
12:20 PM72 °FScattered clouds.5 mph69%30.12 "HgN/A
11:20 AM72 °FScattered clouds.3 mph73%30.12 "HgN/A
10:20 AM70 °FScattered clouds.2 mph78%30.12 "HgN/A
9:20 AM66 °FPassing clouds.2 mph88%30.15 "HgN/A
8:20 AM64 °FPassing clouds.5 mph88%30.12 "HgN/A
7:20 AM63 °FScattered clouds.5 mph88%30.12 "Hg5 mi
6:20 AM59 °FFog.3 mph100%30.12 "Hg3 mi
5:20 AM59 °FFog.3 mph100%30.12 "Hg4 mi
4:20 AM61 °FPartly cloudy.2 mph94%30.12 "Hg5 mi
3:20 AM61 °FPassing clouds.3 mph94%30.12 "Hg5 mi
2:20 AM61 °FPassing clouds.3 mph94%30.12 "Hg5 mi
1:20 AM61 °FPassing clouds.2 mph94%30.12 "HgN/A
12:20 AM61 °FPassing clouds.3 mph100%30.12 "HgN/A
11:20 PM
Sat, Jul 23
63 °FPassing clouds.No wind94%30.12 "HgN/A
10:20 PM63 °FPartly cloudy.2 mph94%30.12 "HgN/A
9:20 PM63 °FBroken clouds.7 mph94%30.09 "HgN/A
8:20 PM61 °FPartly sunny.8 mph94%30.09 "HgN/A
Weather by CustomWeather, © 2016

See weather overviewHow to use our weather pages